Theta_e
311 315 321 325 317 311 314 316 319 320 322 326 325 326 345 346 346 352 356 354 356 351 348 344 345 346 345 343 342 339 333 324 319 320 323 328 331 331 326 323 330 331 333 331 328 327 325 323 323
310 316 326 326 313 312 312 315 317 318 321 323 322 324 342 348 345 356 357 356 357 352 348 344 343 346 344 343 341 338 334 326 319 320 326 333 331 325 322 325 329 332 332 332 331 331 330 327 324
317 321 329 320 310 312 311 314 316 318 319 320 320 323 342 349 345 356 353 357 356 350 348 345 343 343 344 341 340 337 334 328 320 320 325 331 328 322 322 327 329 332 330 329 327 327 328 326 325
321 322 327 317 314 312 313 314 314 317 319 321 321 321 350 343 343 344 349 353 355 346 347 344 344 344 342 340 338 335 334 331 321 320 322 324 325 322 323 327 329 332 332 327 327 325 323 323 323
321 321 317 315 315 314 316 317 318 316 318 320 321 322 353 349 349 348 349 353 350 343 347 344 343 343 340 339 337 334 335 333 324 320 321 323 323 321 323 326 328 329 327 325 327 323 322 322 322
319 317 317 317 317 317 316 320 319 319 320 320 319 331 353 353 351 352 355 356 352 343 346 344 341 341 339 333 336 336 336 334 328 321 320 322 322 322 323 323 323 324 325 328 325 323 323 323 322
312 310 314 317 317 317 318 319 317 316 316 319 320 319 355 356 353 353 355 356 350 346 347 345 341 340 338 335 334 336 336 335 330 323 321 322 325 326 327 331 329 329 330 327 323 323 324 323 322
316 307 312 312 315 314 317 317 317 318 317 318 319 317 344 356 355 357 356 355 350 348 349 346 341 339 338 337 335 337 337 336 332 326 321 323 325 325 324 327 326 324 324 323 323 323 322 322 330
311 306 307 311 314 313 315 313 316 316 317 317 317 317 339 357 357 358 357 355 351 349 349 347 342 338 336 337 339 339 337 336 333 327 322 323 324 325 323 325 325 323 323 323 322 321 321 327 337
308 303 307 310 311 311 313 313 314 314 315 316 316 319 325 345 356 358 357 357 354 348 350 348 343 338 336 337 340 340 337 336 333 327 324 322 324 324 325 324 323 323 323 322 321 321 321 326 334
310 307 307 310 311 312 311 312 313 313 313 314 315 315 315 319 332 349 356 355 354 353 349 349 346 338 336 336 339 340 336 337 332 327 325 322 325 325 325 323 323 323 322 322 321 322 327 338 340
312 312 311 311 312 311 309 312 312 313 313 313 314 314 315 315 318 322 350 358 358 356 351 348 347 339 336 336 337 339 337 335 328 326 324 322 324 324 324 324 325 323 324 325 326 330 332 338 340
312 311 313 314 314 313 314 312 312 312 314 314 314 314 314 315 315 318 320 349 357 357 356 349 347 342 336 335 335 335 333 330 325 324 323 322 323 325 328 333 328 324 327 328 335 338 339 342 343
313 313 313 314 314 314 313 312 313 314 314 313 313 314 314 314 315 315 317 321 353 355 356 353 347 343 337 334 332 332 330 327 324 322 322 322 328 338 334 338 338 335 336 337 338 338 341 343 344
313 312 312 312 314 312 313 312 313 315 314 314 314 315 314 314 314 315 315 315 337 352 351 354 349 341 338 334 331 330 328 328 323 321 321 328 334 340 341 340 341 339 338 338 340 340 340 343 345
312 311 311 311 313 314 313 313 313 314 314 314 314 314 314 314 314 314 315 315 328 347 350 349 349 342 337 334 331 330 328 326 321 320 324 338 342 343 342 339 342 340 338 337 343 344 345 347 346
311 312 313 314 314 313 312 313 313 314 314 313 314 314 314 314 315 315 315 315 323 344 349 348 345 344 338 337 338 331 329 325 321 321 332 342 345 344 341 340 341 339 337 337 337 338 341 342 342
314 314 314 314 315 315 315 315 314 315 314 313 313 313 314 314 315 315 315 315 323 336 347 347 344 342 339 339 340 333 331 331 328 330 329 339 344 342 342 339 336 336 336 336 339 344 342 342 341
316 316 317 316 316 315 316 316 316 315 314 311 312 313 314 315 315 315 315 316 320 330 341 345 344 342 339 340 340 341 339 341 337 342 339 332 335 339 340 338 337 337 336 336 338 341 343 344 342
316 317 317 317 317 316 316 317 316 314 313 315 315 316 316 315 315 315 315 315 320 325 335 344 344 339 342 341 332 336 343 344 345 345 344 339 338 338 341 338 337 338 338 336 336 341 341 341 338
315 315 315 315 316 316 316 318 317 317 315 317 317 317 317 317 316 315 315 315 317 324 331 340 345 343 343 340 340 342 345 345 346 346 346 346 342 340 342 337 337 339 338 337 338 340 341 338 337
315 315 316 316 316 317 319 320 318 317 317 315 316 316 317 317 317 316 316 315 316 320 328 333 343 342 341 342 340 345 342 337 346 347 348 346 345 344 343 341 337 342 344 343 340 337 336 336 334
320 318 317 317 316 314 317 322 318 317 318 316 316 317 317 318 318 317 316 316 316 320 327 332 339 341 340 335 333 335 340 344 345 347 348 347 347 347 344 341 336 339 338 338 335 336 334 331 330
316 316 317 317 316 320 317 318 317 316 316 316 316 316 317 317 318 318 318 317 317 317 324 336 342 341 341 340 336 343 348 345 347 349 348 347 347 344 343 340 338 335 335 333 332 330 330 330 323
314 315 317 320 319 321 317 318 317 316 316 316 315 316 317 317 317 318 318 317 317 317 323 334 340 340 340 340 338 347 347 347 348 348 347 347 344 343 342 338 339 334 332 329 329 329 328 320 316
312 313 312 319 314 317 318 321 318 315 316 316 317 316 317 317 317 317 317 317 317 317 324 338 340 340 339 337 341 346 346 347 348 347 347 346 344 343 339 338 332 331 330 330 330 324 318 314 312
311 312 314 317 317 318 315 314 314 314 314 315 315 316 317 317 318 319 319 317 317 316 323 334 336 340 339 340 341 341 342 345 345 347 346 345 343 341 340 335 331 330 329 327 320 316 313 311 313
312 313 313 318 321 320 315 314 314 315 316 315 315 315 317 317 317 317 317 317 317 316 320 333 336 336 343 342 336 337 344 336 334 344 343 343 341 339 339 330 329 328 324 317 314 311 311 313 314
311 312 317 317 318 317 318 315 311 314 314 314 314 315 315 316 316 316 317 317 317 316 320 333 337 335 342 340 345 343 337 335 341 343 342 339 338 338 329 329 327 325 317 313 312 313 316 316 316
311 314 315 318 320 319 316 317 314 311 313 313 313 314 314 315 316 316 318 319 316 316 317 331 336 336 337 340 345 341 335 335 342 340 341 337 338 332 329 327 323 316 314 316 316 318 317 317 317
Wind_Speed
4 4 2 2 3 4 4 8 5 13 4 2 16 5 16 14 8 5 22 27 20 37 39 36 33 31 29 27 26 22 19 20 21 23 25 25 23 23 24 26 24 21 18 17 16 15 13 12 11
2 5 2 2 4 1 6 5 11 14 4 24 32 5 4 7 12 13 29 27 18 33 38 38 35 31 30 28 26 24 20 20 22 24 25 25 24 24 25 26 24 20 19 17 14 13 11 11 11
2 5 3 4 4 7 6 5 9 16 19 23 18 30 7 6 14 31 21 30 26 36 38 36 35 33 31 30 28 25 23 21 22 24 25 25 25 25 25 25 22 20 18 15 13 12 11 10 10
1 3 3 3 10 7 6 8 7 18 28 20 17 8 4 13 21 21 30 29 27 34 37 36 34 33 32 31 30 27 25 23 22 24 25 25 25 25 24 22 20 18 15 12 11 9 9 9 8
2 0 1 3 8 5 8 12 23 11 17 24 25 9 3 13 10 25 31 32 30 36 38 35 34 33 32 30 29 29 26 24 23 23 24 24 24 23 22 20 18 16 14 11 10 8 8 7 6
1 0 1 6 8 6 8 23 18 15 21 26 19 10 8 16 18 28 31 32 31 38 40 37 34 33 31 31 29 28 27 25 23 23 24 23 23 22 20 18 16 15 13 11 9 8 6 6 6
4 3 4 4 5 7 7 14 10 8 14 12 28 5 11 23 26 28 27 26 32 40 41 39 35 33 31 30 30 28 26 25 22 21 23 23 22 20 18 17 15 14 12 10 9 7 5 5 8
5 3 3 3 2 7 8 24 21 13 17 26 18 8 8 29 30 28 24 22 31 40 40 39 36 34 32 31 29 28 26 24 23 22 22 22 21 19 17 15 13 11 9 8 8 6 6 8 10
6 2 2 4 4 6 23 8 25 20 17 25 19 23 9 32 37 34 28 24 32 39 39 38 36 35 33 32 30 28 26 24 23 22 22 22 20 18 16 14 11 10 9 8 7 7 8 12 11
3 3 6 6 6 9 16 13 30 17 18 12 30 19 16 1 18 38 36 32 30 40 41 39 36 36 34 33 31 29 29 26 24 23 22 21 19 17 15 13 11 9 9 8 8 9 10 12 8
3 6 9 17 27 28 18 15 23 9 5 15 21 30 27 16 23 26 37 33 31 33 42 41 39 37 35 35 33 31 30 27 24 22 22 22 20 17 15 13 12 10 9 9 10 10 10 9 7
4 10 12 14 26 16 7 14 11 14 13 18 18 22 26 28 32 24 10 39 39 36 37 42 41 38 36 34 33 31 30 27 26 23 23 23 21 18 14 12 11 10 10 10 10 10 9 5 3
3 5 19 20 20 15 13 10 9 23 24 20 24 22 25 27 26 25 18 22 40 38 38 41 42 40 38 34 32 31 29 27 25 25 25 24 21 17 14 11 10 10 10 10 8 8 7 4 3
12 21 22 19 23 19 6 10 15 34 35 23 27 26 24 28 28 27 27 26 22 35 39 40 43 41 37 34 31 30 28 27 25 25 26 25 21 15 14 13 11 12 10 8 6 7 7 7 6
22 12 15 11 12 9 14 11 14 35 34 36 33 35 26 25 28 28 19 23 17 34 38 41 41 39 38 34 31 29 27 26 24 25 26 25 21 15 12 13 12 10 9 7 7 10 14 11 8
7 5 5 6 5 13 2 17 25 28 29 34 30 32 33 24 25 29 26 17 9 23 35 36 40 38 32 30 30 28 27 26 24 26 27 25 19 17 14 15 11 11 9 9 7 9 8 13 10
3 5 9 10 5 9 7 18 12 25 27 29 31 30 32 32 25 28 21 16 5 22 34 37 39 40 36 27 24 27 25 25 24 27 30 26 22 20 20 18 16 17 15 13 12 12 9 11 11
6 7 7 8 13 15 13 18 13 16 17 25 32 33 30 34 31 25 20 16 6 15 32 28 38 40 38 32 22 23 24 23 22 24 30 28 24 22 21 19 18 18 18 15 12 9 10 10 11
16 18 21 20 17 10 18 21 18 14 16 14 22 31 24 25 29 24 19 19 10 17 30 36 41 40 42 36 26 23 26 23 23 21 23 30 25 23 20 20 19 17 16 14 16 16 14 14 12
20 21 23 24 20 18 16 24 20 6 10 20 22 31 34 29 28 24 22 18 15 17 27 44 41 40 43 41 42 32 28 26 20 21 22 23 22 24 21 22 21 15 17 18 19 16 13 11 8
13 12 14 19 9 9 13 30 17 16 12 23 30 31 34 35 37 31 31 21 17 24 29 34 44 43 44 40 44 39 32 28 21 27 25 23 26 26 22 21 19 15 17 18 15 14 12 9 10
19 11 17 20 15 12 7 21 19 9 19 17 24 30 34 35 36 35 34 28 22 25 31 32 46 46 47 48 46 47 46 35 34 36 30 31 28 25 21 19 21 16 17 16 13 11 10 7 5
7 14 12 7 9 8 11 8 27 11 16 16 17 27 33 34 34 35 32 26 24 21 33 38 45 47 46 55 44 44 40 39 38 39 34 34 29 27 22 16 20 18 15 12 10 9 6 8 4
5 6 8 4 4 10 8 13 28 12 14 17 15 25 32 31 34 38 35 30 31 22 32 42 50 49 52 52 50 45 43 44 42 39 39 38 33 29 22 18 16 16 12 9 10 10 11 6 5
2 3 4 3 0 9 4 12 20 8 10 13 14 25 35 36 35 34 37 40 33 25 30 45 50 50 49 51 54 49 48 45 45 44 42 40 34 29 23 22 17 13 17 15 13 10 8 6 3
10 8 4 5 3 7 1 7 6 10 14 24 26 27 31 28 33 38 40 37 42 32 28 48 55 55 53 52 60 54 47 43 41 45 43 37 33 27 24 20 18 22 20 15 12 11 9 5 3
5 3 6 6 12 9 4 7 10 15 13 11 18 18 21 19 29 36 35 35 38 33 31 40 51 55 59 59 58 54 47 45 38 41 42 39 33 28 23 21 26 23 18 14 15 11 8 6 6
10 5 1 2 4 5 5 7 8 5 4 6 8 5 12 20 16 16 29 26 28 30 31 39 52 56 56 57 50 44 54 47 45 47 41 36 31 27 22 28 25 20 17 16 12 10 9 7 9
2 2 3 3 4 4 4 5 7 8 7 8 8 16 16 21 21 21 15 22 23 32 33 41 52 51 49 55 49 48 51 64 61 51 39 32 29 25 31 27 23 19 18 16 14 12 11 11 11
10 10 8 5 5 5 4 14 6 9 5 6 8 16 14 18 18 22 17 16 20 29 35 37 48 51 49 47 49 45 60 62 49 38 40 36 31 31 30 26 23 21 19 17 14 14 12 11 9
Wind_Direction
298 215 178 126 67 66 251 251 268 282 305 3 318 319 191 176 167 212 155 165 166 173 167 167 169 167 164 161 156 151 148 148 149 150 151 150 152 155 156 154 152 148 144 142 140 137 134 133 134
279 182 181 100 104 108 264 233 244 254 283 306 316 313 241 229 203 159 155 163 170 175 168 168 169 170 166 164 160 155 152 152 151 152 152 152 153 158 159 157 154 148 142 143 145 144 145 143 140
109 177 163 141 158 203 220 242 247 274 312 322 312 324 187 208 187 163 169 164 167 173 170 170 170 170 169 166 163 159 156 157 155 154 155 157 158 160 161 160 156 151 145 143 141 146 152 149 146
167 149 217 153 227 253 214 289 299 311 311 317 311 326 310 172 167 174 161 161 166 172 172 172 172 172 171 171 166 163 161 159 159 159 159 161 161 161 163 162 159 157 158 156 152 149 152 150 147
320 266 289 239 251 261 282 284 291 299 299 300 312 302 148 192 196 167 164 167 172 171 174 174 174 174 172 173 169 165 163 162 163 162 162 162 162 161 164 165 166 164 167 163 161 161 160 150 140
273 45 103 238 259 298 295 290 307 298 306 327 355 304 186 207 194 168 170 172 176 171 175 176 176 176 176 175 174 169 167 164 167 167 165 165 163 161 163 167 170 169 170 169 171 172 166 145 127
140 93 228 256 276 299 282 308 306 318 346 339 335 285 165 183 183 170 172 180 178 176 175 176 176 178 178 178 175 173 171 168 170 171 168 168 168 164 162 166 169 172 177 177 180 183 164 137 124
226 105 254 265 297 277 303 313 307 350 323 329 354 37 254 184 177 169 175 178 182 179 179 178 178 179 179 180 178 176 176 172 173 173 173 173 172 168 164 166 169 171 180 186 188 182 162 138 131
232 47 299 279 307 269 307 314 304 318 313 332 327 350 17 182 174 172 172 168 179 183 184 181 181 181 182 181 179 179 178 178 176 176 178 179 178 171 167 167 176 181 187 195 192 180 162 152 134
144 140 231 217 248 273 285 288 299 317 322 330 328 337 16 135 177 182 175 173 177 188 189 186 186 184 184 183 181 181 181 181 183 181 181 183 182 175 174 177 183 188 190 190 183 176 166 167 161
244 211 245 269 266 265 268 280 296 295 302 311 314 320 320 318 295 235 185 187 189 188 190 191 189 189 187 185 184 185 185 184 186 187 185 184 183 182 183 186 189 189 187 177 173 167 163 158 151
278 256 258 280 272 284 273 274 286 274 283 301 311 321 316 312 314 348 257 194 186 188 190 193 192 190 190 189 188 189 190 189 189 188 188 186 186 187 189 185 189 184 175 167 168 164 169 155 176
239 323 318 310 312 300 299 301 284 291 295 294 298 300 301 303 314 313 328 261 192 191 192 191 192 192 193 192 192 193 194 196 194 191 189 190 188 181 176 167 174 176 170 172 174 180 177 145 146
311 314 307 316 313 315 303 292 306 284 276 297 298 298 299 296 296 306 321 350 222 200 200 192 191 195 192 192 197 196 197 199 196 194 192 191 190 170 167 158 148 162 158 155 175 191 192 204 206
312 316 316 303 299 287 316 307 264 269 283 286 288 292 292 294 288 288 315 319 269 210 196 190 192 193 191 193 196 201 201 203 200 197 194 192 189 178 181 189 187 183 197 209 233 248 229 231 222
313 312 322 280 322 284 180 267 267 271 272 272 274 280 291 286 293 286 295 315 302 224 199 189 190 188 191 193 197 200 205 204 200 196 192 192 191 187 194 201 203 197 208 206 190 208 200 193 219
316 262 272 293 285 265 180 262 284 280 267 264 270 269 280 287 288 292 297 306 269 224 203 188 190 187 188 190 199 200 204 205 197 195 191 196 194 195 203 208 215 219 221 217 227 229 242 245 252
260 278 277 277 300 301 287 277 282 278 265 258 263 260 268 282 281 292 300 295 228 220 205 197 191 187 183 180 190 198 203 209 201 201 199 201 205 203 208 213 216 211 216 227 236 242 244 237 256
255 262 269 268 282 280 289 284 283 275 274 262 268 266 260 277 283 283 296 284 209 208 202 196 183 189 187 177 175 192 199 202 197 199 206 204 208 211 215 215 210 216 225 231 234 238 244 258 275
249 258 269 271 270 264 272 278 286 259 261 270 271 272 275 277 269 272 281 288 226 209 210 205 206 199 189 195 191 205 198 200 199 201 202 200 211 208 213 210 215 222 231 240 245 250 263 264 275
277 281 289 285 289 269 289 277 271 273 257 261 265 268 275 273 270 270 266 278 240 211 208 215 205 197 195 183 189 192 192 191 196 213 209 205 208 210 213 213 216 217 229 240 248 259 258 267 254
282 292 291 290 292 287 187 281 263 267 267 249 251 250 257 261 261 261 267 260 264 222 211 209 212 204 208 203 200 193 192 195 200 213 210 206 203 205 211 219 218 223 232 240 239 242 254 259 249
300 310 299 304 298 294 234 267 276 223 256 250 251 254 260 257 260 263 259 250 260 230 213 211 215 207 201 194 201 197 194 195 199 208 204 201 200 206 210 217 220 226 232 221 232 239 199 156 151
23 357 311 241 154 259 203 218 267 258 258 251 241 240 250 257 261 259 259 257 256 241 217 215 212 208 210 207 203 200 196 196 198 202 199 195 195 198 205 211 211 208 207 196 164 165 153 148 154
35 7 319 296 229 255 188 241 262 270 291 263 246 239 248 253 257 260 257 253 250 230 219 214 210 209 208 213 210 203 204 202 201 196 194 189 189 191 198 202 203 193 164 152 152 148 153 154 160
263 184 183 271 238 294 68 246 252 222 246 266 251 244 252 250 254 253 255 248 243 233 221 215 208 210 205 207 205 204 202 204 201 198 191 194 193 196 202 193 181 160 155 157 155 158 163 162 141
276 162 226 251 261 256 235 274 284 256 260 282 272 242 245 266 249 249 245 245 244 224 214 212 216 210 207 208 212 211 200 200 199 198 195 195 192 189 198 179 161 155 157 157 157 159 150 139 125
201 190 337 187 255 248 255 243 235 283 278 305 315 280 256 269 301 241 230 230 235 218 211 208 213 218 213 211 196 195 197 193 196 209 201 189 188 191 182 165 160 156 154 157 151 144 125 119 114
324 201 179 210 230 263 288 245 217 214 225 260 270 284 298 301 299 327 259 242 224 209 205 203 210 213 208 204 207 200 189 184 195 197 194 187 190 182 169 166 163 158 156 151 148 128 115 108 113
256 262 238 238 223 221 261 264 201 193 246 299 293 308 336 324 327 319 289 299 218 198 205 203 205 207 205 199 189 169 182 193 183 194 193 191 179 170 167 163 161 157 152 144 130 123 121 118 110